Theta_e
310 311 310 311 313 318 317 314 312 309 307 305 303 302 302 302 302 302 304 307 310 311 311 311 312 313 316 317 319 321 321 322 324 326 328 330 329 330 330 331 331 331 333 332 332
308 308 309 309 311 317 319 317 315 313 311 308 306 305 304 304 304 303 303 304 304 305 306 309 316 317 317 317 320 320 318 319 320 322 325 329 330 329 330 330 331 333 332 331 331
307 307 307 308 311 315 317 317 317 317 314 312 309 307 306 306 306 308 305 304 303 303 304 309 315 318 318 316 319 319 319 318 318 320 323 326 329 329 329 329 331 332 332 333 331
305 307 309 309 310 313 315 315 315 316 317 315 312 310 309 307 309 308 304 303 303 303 303 306 312 317 318 318 318 320 319 319 319 320 322 323 326 327 328 329 330 331 331 331 330
304 305 307 310 309 311 312 313 313 314 313 316 315 312 310 310 310 308 306 305 304 304 304 312 314 316 317 317 318 320 320 319 318 321 321 322 323 323 326 327 328 330 333 332 331
303 304 305 307 309 309 311 312 312 311 312 314 316 314 310 312 311 310 308 305 304 304 308 311 313 314 316 316 317 319 320 320 319 320 321 321 322 323 323 325 327 327 332 334 334
303 303 303 305 306 308 309 309 311 310 311 312 313 315 313 312 312 311 307 305 305 305 310 311 313 316 314 316 317 318 320 319 319 320 320 321 321 321 321 321 325 326 327 330 334
303 302 304 305 306 307 308 308 309 310 310 311 313 315 313 313 313 313 307 306 305 305 309 310 316 316 315 317 317 317 317 317 317 318 320 319 316 317 320 320 321 323 325 327 327
301 303 303 303 305 306 307 307 309 308 309 311 312 314 312 313 313 313 309 309 311 311 312 313 317 317 318 317 317 316 314 314 313 318 318 318 318 316 317 319 319 319 320 323 325
299 301 303 303 302 305 306 307 309 309 310 311 312 313 312 312 313 313 311 310 311 313 314 315 317 315 317 317 313 317 313 311 310 314 315 317 317 315 315 315 317 317 318 318 318
297 299 303 303 303 303 305 307 308 310 311 311 312 312 312 313 313 312 311 310 310 311 312 313 315 315 316 315 312 313 313 312 312 314 316 315 315 313 315 315 315 315 315 315 315
295 298 300 303 302 303 304 307 309 309 310 310 312 312 312 312 311 312 312 309 311 311 310 312 313 313 313 313 313 313 313 314 314 313 313 312 311 311 311 312 314 314 315 315 315
299 295 297 302 303 303 303 305 306 308 309 311 311 312 311 311 312 312 311 310 312 311 309 310 311 312 313 313 314 314 313 312 313 313 313 312 311 311 311 312 312 312 313 313 314
300 298 296 299 303 302 303 304 306 306 307 311 311 311 310 310 312 312 311 312 314 313 310 309 309 310 311 312 313 314 313 312 314 312 312 311 309 311 311 310 310 312 312 312 312
300 299 296 300 304 303 303 302 305 306 310 311 311 311 311 310 311 311 311 313 313 313 311 310 309 309 310 311 314 315 314 314 315 314 313 311 309 308 309 309 309 310 311 311 312
300 300 296 300 301 303 303 303 305 307 309 311 310 312 312 310 311 311 311 311 311 312 312 311 310 308 309 311 311 313 313 313 312 312 310 311 308 306 308 309 308 309 311 311 312
300 300 297 301 301 304 304 304 307 308 308 308 312 311 311 312 311 311 312 311 312 312 313 310 310 309 310 309 311 312 312 310 308 307 307 309 309 307 308 309 309 309 310 310 310
301 299 297 302 302 303 304 304 305 307 308 309 310 311 312 311 311 310 312 312 311 311 311 311 312 310 310 310 312 313 311 311 309 314 309 309 307 308 309 310 310 309 309 309 308
301 297 297 298 303 302 304 304 305 306 306 309 309 311 311 311 311 310 309 311 311 310 311 311 310 309 309 310 310 313 312 309 308 303 306 308 309 308 308 308 309 309 309 309 308
300 299 299 298 302 301 303 305 305 303 305 307 308 309 309 310 311 311 310 311 310 310 310 313 313 309 309 310 309 311 310 310 307 304 306 303 305 304 308 307 308 308 308 308 307
300 299 297 298 300 300 304 302 301 302 304 305 308 307 308 310 311 311 311 310 310 311 310 311 312 310 310 310 310 311 312 311 309 307 308 306 303 305 307 306 305 305 307 307 308
300 299 298 299 302 300 304 301 303 303 303 303 303 307 308 309 310 310 310 310 310 310 311 310 312 311 311 309 310 310 311 310 310 310 307 307 305 307 306 304 306 306 307 306 307
299 297 298 299 299 300 300 302 303 303 303 303 303 304 306 308 309 309 309 309 310 310 311 311 312 313 312 310 308 310 309 311 310 309 310 308 305 305 305 305 307 307 307 307 307
298 299 299 299 299 299 301 301 304 302 303 303 304 303 304 306 306 308 309 309 309 310 311 311 310 311 311 311 309 310 310 309 310 312 311 310 309 308 306 306 306 307 307 308 308
297 299 298 298 298 299 299 301 301 304 303 304 304 303 304 302 305 305 305 308 309 309 309 310 305 308 309 308 308 309 310 310 310 310 312 310 310 309 308 306 307 309 309 308 308
298 297 297 299 298 298 299 298 301 302 303 304 303 303 305 303 303 302 306 305 306 307 309 308 307 307 303 307 308 308 307 310 310 310 310 310 309 309 309 309 309 309 309 309 309
298 298 298 298 299 298 298 298 300 302 302 302 302 303 304 304 305 305 305 305 306 306 307 307 308 306 307 305 307 308 308 308 308 309 309 310 309 309 308 308 308 309 309 309 309
Wind_Speed
20 22 23 22 22 22 20 18 15 13 12 12 12 10 9 10 12 14 16 15 16 17 17 15 11 4 2 1 5 2 3 5 8 6 4 18 9 6 3 11 7 6 4 14 23
20 21 22 23 23 19 21 20 17 14 12 11 11 9 8 7 9 15 17 16 15 15 13 9 4 5 3 3 4 4 3 6 9 4 7 16 16 11 3 6 7 8 13 21 19
19 19 19 22 23 20 18 16 16 16 13 11 11 10 9 7 11 5 11 16 16 13 13 11 11 6 8 9 6 5 4 6 3 6 8 1 12 17 10 8 12 18 19 21 18
26 21 18 20 22 21 20 20 17 13 12 12 11 10 8 4 4 3 5 8 11 11 12 8 8 6 4 7 14 3 8 12 5 4 3 3 7 5 13 13 12 17 22 23 19
21 23 25 17 20 22 21 20 18 17 13 13 14 11 8 6 10 11 3 1 7 8 11 10 10 10 5 6 12 7 8 3 5 1 5 7 6 7 13 16 7 7 22 23 20
19 21 26 23 17 21 18 18 18 15 16 14 16 14 13 13 10 15 15 9 2 6 10 12 6 12 4 6 7 0 15 9 6 6 5 4 7 8 13 13 11 10 15 16 19
19 19 19 28 18 15 17 16 17 15 14 14 16 18 15 18 9 10 12 10 8 4 6 7 7 6 4 1 2 2 3 4 5 8 5 8 7 8 21 8 19 15 13 16 19
20 18 19 23 20 12 16 15 14 15 14 16 15 17 8 12 22 18 9 10 8 7 9 10 8 8 3 6 3 3 3 4 9 15 6 9 6 13 23 19 14 16 19 20 20
16 17 16 17 22 14 13 14 13 17 16 16 16 18 6 19 16 20 10 7 6 5 7 8 7 6 6 4 3 4 3 7 5 18 6 8 3 11 20 27 25 22 21 22 24
16 14 16 16 15 16 12 13 12 16 17 14 17 9 15 7 11 13 16 9 9 8 5 8 7 5 6 9 7 8 5 6 9 5 5 7 10 11 8 4 9 14 16 21 25
15 14 13 17 17 16 18 14 11 10 22 16 7 10 3 12 13 15 20 14 11 12 6 14 5 11 13 15 14 5 4 9 10 4 3 8 9 11 19 17 12 17 20 21 26
18 14 12 14 16 21 19 17 9 5 8 30 15 24 9 10 4 10 20 17 13 10 13 6 14 11 10 10 11 7 7 4 3 9 3 7 11 11 13 15 23 25 25 28 29
19 16 15 14 16 18 21 20 20 10 4 16 36 13 17 16 7 18 25 23 13 13 15 12 2 16 12 9 11 8 8 6 5 2 7 6 8 12 11 29 30 30 33 30 34
21 17 14 11 16 19 26 23 17 18 3 7 19 16 18 9 9 18 27 19 7 15 11 11 17 5 14 9 7 11 5 7 4 5 2 4 6 7 7 3 12 25 29 36 39
19 17 13 11 13 22 13 21 14 7 6 14 12 13 23 14 12 14 23 20 10 7 10 5 7 7 10 9 7 2 2 6 1 1 4 3 4 6 8 7 7 14 27 27 27
15 16 14 17 24 15 19 15 19 5 9 5 9 15 11 23 13 17 14 10 4 9 7 5 6 6 4 6 7 9 8 6 2 1 4 8 6 6 8 9 7 11 9 10 12
15 15 14 16 24 22 20 21 5 6 6 7 6 13 22 11 10 9 10 7 8 6 6 0 4 2 2 7 6 8 11 2 2 0 6 5 9 11 6 3 1 2 8 5 2
16 13 13 13 19 23 25 6 8 6 3 3 7 14 16 13 11 7 12 9 13 8 11 7 5 11 6 14 6 15 12 5 7 5 2 2 7 5 7 1 0 10 9 4 7
15 11 13 11 18 27 17 8 5 2 5 8 11 7 11 13 8 8 7 14 15 14 6 8 4 12 9 5 9 12 12 4 3 2 2 5 6 7 7 6 5 4 4 10 9
11 6 13 12 16 22 9 8 6 2 2 8 8 9 9 14 11 15 14 11 7 16 12 3 3 8 7 5 9 3 5 6 0 3 4 5 5 5 4 9 6 4 4 3 2
7 4 4 7 9 14 3 6 3 5 5 3 4 9 8 8 12 10 8 9 19 16 13 5 0 1 5 10 13 5 4 5 5 4 3 1 4 3 3 8 9 7 7 1 3
5 1 4 3 4 3 4 4 5 7 9 3 3 3 3 12 13 11 15 11 32 20 18 13 4 4 8 3 10 12 7 14 4 5 3 2 5 1 6 9 17 9 5 5 2
4 4 5 7 3 2 3 4 3 4 7 5 6 6 4 4 5 16 12 14 23 17 14 12 4 5 4 2 3 6 14 11 12 3 5 4 4 4 7 8 12 6 4 4 2
7 2 5 7 5 1 2 2 2 11 5 7 5 8 8 10 4 3 11 7 21 21 23 20 6 8 11 5 7 8 14 18 15 10 14 12 14 8 5 5 8 12 11 9 10
7 3 4 3 6 6 1 2 6 6 6 14 6 10 11 7 1 4 3 5 7 16 8 9 5 8 15 14 9 8 16 18 20 18 12 18 20 16 11 8 13 14 11 11 13
8 5 3 2 4 9 11 6 10 7 8 5 7 12 11 11 13 9 6 5 8 15 10 7 8 5 5 8 11 13 11 19 22 22 22 21 21 19 22 22 16 17 21 22 18
17 13 5 7 5 6 6 8 8 5 11 15 13 7 11 16 19 6 4 13 4 4 6 1 4 3 11 4 8 14 15 17 16 20 18 22 25 25 20 17 21 25 26 25 27
Wind_Direction
269 266 263 266 263 253 240 243 245 242 248 254 263 269 271 267 262 261 263 247 251 258 258 261 266 272 335 254 235 268 277 238 248 242 264 142 173 205 146 127 132 165 87 152 170
274 271 264 263 259 263 237 241 243 245 241 250 255 262 272 284 281 265 252 252 250 249 247 242 243 221 214 218 200 229 219 239 267 309 216 162 183 170 147 166 151 141 121 167 182
278 278 271 259 250 253 243 226 234 237 244 245 252 256 262 287 312 265 253 243 244 236 230 223 205 192 208 207 204 202 227 268 335 23 12 89 193 171 187 201 192 181 158 181 189
278 274 277 260 246 247 242 228 230 231 238 248 248 251 254 236 259 301 267 237 236 223 211 221 198 193 220 201 214 234 245 272 14 354 349 301 208 220 196 206 217 207 201 191 195
280 274 270 268 254 241 245 230 225 230 235 246 249 247 247 236 250 268 310 240 233 214 197 200 205 209 206 217 230 200 273 213 253 317 268 291 278 263 217 234 223 138 185 191 203
279 267 270 272 248 243 242 235 231 230 231 231 246 244 229 243 243 253 253 254 329 186 180 199 217 214 291 268 218 18 240 239 222 227 235 244 252 226 243 232 224 218 178 200 209
281 275 269 260 277 240 241 234 228 232 232 236 242 246 231 229 264 247 235 230 230 167 180 203 225 176 215 217 261 33 286 286 242 228 242 209 263 225 227 253 233 204 214 208 208
281 271 256 254 265 250 237 243 224 230 235 239 243 239 232 236 245 259 233 228 212 198 181 198 186 202 202 108 103 201 238 221 199 201 189 166 250 221 231 232 229 217 218 220 215
296 279 264 260 247 246 244 239 241 228 226 228 223 214 220 226 221 229 225 210 182 186 167 174 175 209 173 184 149 236 224 220 270 187 158 185 271 241 255 223 231 234 226 227 221
316 287 263 253 253 237 242 238 233 217 209 213 223 226 244 223 220 216 212 191 175 167 152 175 197 211 185 208 196 166 203 215 208 192 242 203 242 288 300 245 231 246 251 241 247
312 309 262 249 250 252 227 225 217 208 198 194 204 202 160 188 188 202 196 176 188 190 185 197 211 201 206 209 262 358 265 210 199 142 160 242 251 248 251 245 220 233 240 247 250
312 304 284 244 243 229 230 220 186 188 222 221 214 211 187 172 174 196 183 183 197 198 213 173 229 218 224 224 229 240 264 241 100 139 157 257 252 236 230 244 242 236 236 240 243
296 308 301 250 236 232 228 234 223 214 271 220 212 202 183 196 200 195 183 195 189 205 203 208 228 211 230 225 216 225 218 249 249 69 219 268 263 233 225 226 228 233 237 238 239
281 293 301 289 242 231 229 228 215 240 268 197 190 211 192 190 210 200 187 184 198 214 208 231 247 221 231 228 205 229 206 252 326 85 251 112 290 311 302 276 209 224 233 237 239
268 278 291 280 229 228 230 224 224 185 244 167 161 183 184 168 146 184 193 202 213 202 201 204 209 189 227 200 201 215 343 174 230 319 351 180 272 250 243 288 223 229 235 240 243
258 272 291 279 224 210 218 211 203 203 221 150 141 165 146 190 190 153 181 207 208 211 232 183 340 183 214 205 221 124 103 85 89 203 266 194 212 219 220 231 222 237 259 268 248
254 270 284 271 233 198 196 185 238 208 138 177 169 167 174 172 147 167 166 185 160 138 179 308 213 267 248 179 175 155 148 116 0 164 225 187 205 236 290 284 303 287 112 65 344
245 265 278 260 226 207 189 206 229 195 242 222 161 170 189 162 184 167 175 178 205 221 146 172 205 197 194 185 178 186 184 157 194 194 211 34 236 261 222 267 274 199 192 234 274
237 265 277 272 228 196 193 195 227 191 319 172 156 182 200 194 148 148 199 198 195 202 189 183 235 177 179 180 158 192 224 239 63 46 57 212 258 297 233 261 234 213 213 268 277
223 263 280 288 232 213 219 216 191 210 123 275 179 183 184 189 189 180 181 180 201 217 235 32 115 182 172 210 216 146 161 213 259 170 239 253 235 223 194 229 213 190 207 235 308
191 282 283 315 212 217 197 208 150 212 138 43 288 192 211 172 197 188 191 182 201 193 216 185 179 164 122 211 184 161 208 199 145 226 217 315 249 321 310 145 121 113 101 17 347
195 216 306 203 214 239 218 210 145 140 162 141 57 330 277 215 196 199 205 204 191 192 198 188 163 165 194 209 220 205 212 192 167 205 242 40 271 63 65 117 129 131 37 20 356
203 228 255 187 228 236 327 307 56 140 170 157 168 191 341 293 252 211 196 216 184 190 188 161 187 170 158 315 342 224 226 214 233 316 204 163 256 114 102 101 150 149 113 76 39
185 223 221 210 228 114 335 300 208 201 166 166 211 199 232 280 245 324 226 235 214 195 202 170 182 205 221 162 142 192 211 220 217 218 230 235 261 265 208 224 168 178 179 179 189
190 232 194 193 225 217 116 289 191 242 197 185 204 198 193 216 214 220 222 272 271 212 205 193 193 223 242 255 244 190 198 211 220 229 217 236 249 247 251 240 249 288 288 218 216
200 188 192 298 182 183 205 218 225 196 176 202 221 200 206 221 208 212 214 199 217 209 208 234 234 199 269 256 250 258 248 210 220 224 230 241 248 254 247 258 271 278 281 281 263
223 213 218 230 181 176 200 209 219 198 206 208 208 226 217 222 227 287 304 312 337 290 185 273 201 207 249 262 284 260 244 251 248 229 227 234 239 257 261 257 264 268 268 271 271